Location: Newark
(44.3290°N, 23.7757°E)
Time: 20:42:35
(UTC+00:00)

BlueWalker 3 - Pass Details

Date: 04 December 2022
Orbit: 499 x 517 km, 53.2° (Epoch: 04 February)

Event Time Altitude Azimuth Distance (km) Brightness Sun altitude
Rises 15:27:37 0° 290° (WNW) 2,631 6.4 -7.4°
Reaches altitude 10° 15:30:12 10° 306° (NW) 1,740 5.1 -7.8°
Enters shadow 15:36:17 11° 50° (NE) 1,693 4.0 -8.8°
Exits shadow 16:11:09 -67° 106° (ESE) 12,307 8.9 -14.7°
